Year,Month,Day,Hour,Minute,Value (Times are PST for temperature in C)
2008,06,23,00,00,12.00
2008,06,23,00,01,11.90
2008,06,23,00,02,11.90
2008,06,23,00,03,11.90
2008,06,23,00,04,11.90
2008,06,23,00,05,11.90
2008,06,23,00,06,11.90
2008,06,23,00,07,11.80
2008,06,23,00,08,11.80
2008,06,23,00,09,11.80
2008,06,23,00,10,11.80
2008,06,23,00,11,11.80
2008,06,23,00,12,11.80
2008,06,23,00,13,11.70
2008,06,23,01,02,11.10
2008,06,23,01,03,11.10
2008,06,23,01,04,11.10
2008,06,23,01,05,11.10
2008,06,23,01,06,11.10
2008,06,23,01,07,11.10
2008,06,23,01,08,11.10
2008,06,23,01,09,11.10
2008,06,23,01,10,11.00
2008,06,23,01,11,11.00
2008,06,23,01,12,11.00
2008,06,23,01,13,11.00
2008,06,23,01,14,11.00
2008,06,23,01,15,11.00
2008,06,23,01,16,10.90
2008,06,23,01,17,10.90
2008,06,23,01,18,10.90
2008,06,23,01,19,10.90
2008,06,23,01,20,10.90
2008,06,23,01,21,10.90
2008,06,23,01,22,10.90
2008,06,23,01,23,10.90
2008,06,23,01,24,10.90
2008,06,23,01,25,10.90
2008,06,23,01,26,10.90
2008,06,23,01,27,10.80
2008,06,23,01,28,10.80
2008,06,23,01,29,10.80
2008,06,23,01,30,10.80
2008,06,23,01,31,10.80
2008,06,23,01,32,10.80
2008,06,23,01,33,10.80
2008,06,23,01,34,10.80
2008,06,23,01,35,10.80
2008,06,23,01,36,10.80
2008,06,23,01,37,10.80
2008,06,23,01,38,10.80
2008,06,23,01,39,10.80
2008,06,23,01,40,10.80
2008,06,23,01,41,10.80
2008,06,23,01,42,10.80
2008,06,23,01,43,10.80
2008,06,23,01,44,10.70
2008,06,23,01,45,10.70
2008,06,23,01,46,10.70
2008,06,23,01,47,10.70
2008,06,23,01,48,10.70
2008,06,23,01,49,10.70
2008,06,23,01,50,10.70
2008,06,23,01,51,10.70
2008,06,23,01,52,10.70
2008,06,23,01,53,10.70
2008,06,23,01,54,10.70
2008,06,23,01,55,10.60
2008,06,23,01,56,10.60
2008,06,23,01,57,10.60
2008,06,23,01,58,10.60
2008,06,23,01,59,10.60
2008,06,23,02,00,10.60
2008,06,23,02,01,10.50
2008,06,23,02,02,10.50
2008,06,23,02,03,10.50
2008,06,23,02,04,10.50
2008,06,23,02,05,10.50
2008,06,23,02,06,10.40
2008,06,23,02,07,10.40
2008,06,23,02,08,10.40
2008,06,23,02,09,10.40
2008,06,23,02,10,10.40
2008,06,23,02,11,10.40
2008,06,23,02,12,10.40
2008,06,23,02,13,10.30
2008,06,23,02,14,10.30
2008,06,23,02,15,10.30
2008,06,23,02,16,10.30
2008,06,23,02,17,10.30
2008,06,23,02,18,10.30
2008,06,23,02,19,10.30
2008,06,23,02,20,10.20
2008,06,23,02,21,10.20
2008,06,23,02,22,10.20
2008,06,23,02,23,10.20
2008,06,23,02,24,10.20
2008,06,23,02,25,10.20
2008,06,23,02,26,10.20
2008,06,23,02,27,10.10
2008,06,23,02,28,10.10
2008,06,23,02,29,10.10
2008,06,23,02,30,10.10
2008,06,23,02,31,10.10
2008,06,23,02,32,10.10
2008,06,23,02,33,10.10
2008,06,23,02,34,10.00
2008,06,23,02,35,10.00
2008,06,23,02,36,10.00
2008,06,23,02,37,9.90
2008,06,23,02,38,9.90
2008,06,23,02,39,9.90
2008,06,23,02,40,9.90
2008,06,23,02,41,9.90
2008,06,23,02,42,9.90
2008,06,23,02,43,9.90
2008,06,23,02,44,9.90
2008,06,23,02,45,9.90
2008,06,23,02,46,9.80
2008,06,23,02,47,9.80
2008,06,23,02,48,9.80
2008,06,23,02,49,9.80
2008,06,23,02,50,9.80
2008,06,23,02,51,9.80
2008,06,23,02,52,9.80
2008,06,23,02,53,9.80
2008,06,23,02,54,9.80
2008,06,23,02,55,9.80
2008,06,23,02,56,9.80
2008,06,23,02,57,9.80
2008,06,23,02,58,9.70
2008,06,23,02,59,9.70
2008,06,23,03,00,9.70
2008,06,23,03,01,9.70
2008,06,23,03,02,9.70
2008,06,23,03,03,9.70
2008,06,23,03,04,9.70
2008,06,23,03,05,9.70
2008,06,23,03,06,9.60
2008,06,23,03,07,9.60
2008,06,23,03,08,9.60
2008,06,23,03,09,9.60
2008,06,23,03,10,9.60
2008,06,23,03,11,9.60
2008,06,23,03,12,9.60
2008,06,23,03,13,9.60
2008,06,23,03,14,9.60
2008,06,23,03,15,9.60
2008,06,23,03,16,9.60
2008,06,23,03,17,9.60
2008,06,23,03,18,9.60
2008,06,23,03,19,9.50
2008,06,23,03,20,9.50
2008,06,23,03,21,9.50
2008,06,23,03,22,9.50
2008,06,23,03,23,9.50
2008,06,23,03,24,9.50
2008,06,23,03,25,9.50
2008,06,23,03,26,9.50
2008,06,23,03,27,9.40
2008,06,23,03,28,9.40
2008,06,23,03,29,9.40
2008,06,23,03,30,9.40
2008,06,23,03,31,9.40
2008,06,23,03,32,9.40
2008,06,23,03,33,9.40
2008,06,23,03,34,9.40
2008,06,23,03,35,9.40
2008,06,23,03,36,9.40
2008,06,23,03,37,9.30
2008,06,23,03,38,9.30
2008,06,23,03,39,9.30
2008,06,23,03,40,9.30
2008,06,23,03,41,9.30
2008,06,23,03,42,9.30
2008,06,23,03,43,9.30
2008,06,23,03,44,9.30
2008,06,23,03,45,9.30
2008,06,23,03,46,9.30
2008,06,23,03,47,9.30
2008,06,23,03,48,9.30
2008,06,23,03,49,9.30
2008,06,23,03,50,9.30
2008,06,23,03,51,9.30
2008,06,23,03,52,9.30
2008,06,23,03,53,9.30
2008,06,23,03,54,9.20
2008,06,23,03,55,9.20
2008,06,23,03,56,9.20
2008,06,23,03,57,9.20
2008,06,23,03,58,9.20
2008,06,23,03,59,9.20
2008,06,23,04,00,9.20
2008,06,23,04,01,9.20
2008,06,23,04,02,9.20
2008,06,23,04,03,9.20
2008,06,23,04,04,9.20
2008,06,23,04,05,9.20
2008,06,23,04,06,9.20
2008,06,23,04,07,9.10
2008,06,23,04,08,9.10
2008,06,23,04,09,9.10
2008,06,23,04,10,9.10
2008,06,23,04,11,9.10
2008,06,23,04,12,9.10
2008,06,23,04,13,9.10
2008,06,23,04,14,9.10
2008,06,23,04,15,9.10
2008,06,23,04,16,9.10
2008,06,23,04,17,9.10
2008,06,23,04,18,9.10
2008,06,23,04,19,9.10
2008,06,23,04,20,9.10
2008,06,23,04,21,9.10
2008,06,23,04,22,9.10
2008,06,23,04,23,9.10
2008,06,23,04,24,9.10
2008,06,23,04,25,9.00
2008,06,23,04,26,9.00
2008,06,23,04,27,9.00
2008,06,23,04,28,9.00
2008,06,23,04,29,9.00
2008,06,23,04,30,9.00
2008,06,23,04,31,9.00
2008,06,23,04,32,9.00
2008,06,23,04,33,9.00
2008,06,23,04,34,9.00
2008,06,23,04,35,9.00
2008,06,23,04,36,9.00
2008,06,23,04,37,9.00
2008,06,23,04,38,9.00
2008,06,23,04,39,9.00
2008,06,23,04,40,9.00
2008,06,23,04,41,9.00
2008,06,23,04,42,9.00
2008,06,23,04,43,9.00
2008,06,23,04,44,9.00
2008,06,23,04,45,9.00
2008,06,23,04,46,9.00
2008,06,23,04,47,9.00
2008,06,23,04,48,9.00
2008,06,23,04,49,9.00
2008,06,23,04,50,9.00
2008,06,23,04,51,9.00
2008,06,23,04,52,9.00
2008,06,23,04,53,8.90
2008,06,23,04,54,8.90
2008,06,23,04,55,8.90
2008,06,23,04,56,8.90
2008,06,23,04,57,8.90
2008,06,23,04,58,8.90
2008,06,23,04,59,8.90
2008,06,23,05,00,8.90
2008,06,23,05,01,8.90
2008,06,23,05,02,8.90
2008,06,23,05,03,8.90
2008,06,23,05,04,8.90
2008,06,23,05,05,8.90
2008,06,23,05,06,8.80
2008,06,23,05,07,8.80
2008,06,23,05,08,8.80
2008,06,23,05,09,8.80
2008,06,23,05,10,8.80
2008,06,23,05,11,8.80
2008,06,23,05,12,8.80
2008,06,23,05,13,8.80
2008,06,23,05,14,8.80
2008,06,23,05,15,8.80
2008,06,23,05,16,8.80
2008,06,23,05,17,8.80
2008,06,23,05,18,8.80
2008,06,23,05,19,8.80
2008,06,23,05,20,8.80
2008,06,23,05,21,8.80
2008,06,23,05,22,8.80
2008,06,23,05,23,8.80
2008,06,23,05,24,8.80
2008,06,23,05,25,8.80
2008,06,23,05,26,8.80
2008,06,23,05,27,8.80
2008,06,23,05,28,8.80
2008,06,23,05,29,8.80
2008,06,23,05,30,8.80
2008,06,23,05,31,8.80
2008,06,23,05,32,8.80
2008,06,23,05,33,8.80
2008,06,23,05,34,8.80
2008,06,23,05,35,8.80
2008,06,23,05,36,8.80
2008,06,23,05,37,8.80
2008,06,23,05,38,8.80
2008,06,23,05,39,8.80
2008,06,23,05,40,8.80
2008,06,23,05,41,8.80
2008,06,23,05,42,8.80
2008,06,23,05,43,8.80
2008,06,23,05,44,8.80
2008,06,23,05,45,8.80
2008,06,23,05,46,8.90
2008,06,23,05,47,8.90
2008,06,23,05,48,8.90
2008,06,23,05,49,8.90
2008,06,23,05,50,8.90
2008,06,23,05,51,8.90
2008,06,23,05,52,8.90
2008,06,23,05,53,8.90
2008,06,23,05,54,8.90
2008,06,23,05,55,8.90
2008,06,23,05,56,9.00
2008,06,23,05,57,9.00
2008,06,23,05,58,9.00
2008,06,23,05,59,9.00
2008,06,23,06,00,9.00
2008,06,23,06,01,9.00
2008,06,23,06,02,9.10
2008,06,23,06,03,9.10
2008,06,23,06,04,9.10
2008,06,23,06,05,9.10
2008,06,23,06,06,9.10
2008,06,23,06,07,9.10
2008,06,23,06,08,9.10
2008,06,23,06,09,9.10
2008,06,23,06,10,9.10
2008,06,23,06,11,9.20
2008,06,23,06,12,9.20
2008,06,23,06,13,9.20
2008,06,23,06,14,9.20
2008,06,23,06,15,9.20
2008,06,23,06,16,9.20
2008,06,23,06,17,9.30
2008,06,23,06,18,9.30
2008,06,23,06,19,9.30
2008,06,23,06,20,9.30
2008,06,23,06,21,9.30
2008,06,23,06,22,9.40
2008,06,23,06,23,9.40
2008,06,23,06,24,9.40
2008,06,23,06,25,9.40
2008,06,23,06,26,9.40
2008,06,23,06,27,9.50
2008,06,23,06,28,9.50
2008,06,23,06,29,9.60
2008,06,23,06,30,9.60
2008,06,23,06,31,9.60
2008,06,23,06,32,9.60
2008,06,23,06,33,9.60
2008,06,23,06,34,9.60
2008,06,23,06,35,9.70
2008,06,23,06,36,9.70
2008,06,23,06,37,9.70
2008,06,23,06,38,9.70
2008,06,23,06,39,9.70
2008,06,23,06,40,9.80
2008,06,23,06,41,9.80
2008,06,23,06,42,9.80
2008,06,23,06,43,9.80
2008,06,23,06,44,9.80
2008,06,23,06,45,9.90
2008,06,23,06,46,9.90
2008,06,23,06,47,9.90
2008,06,23,06,48,10.00
2008,06,23,06,49,10.00
2008,06,23,06,50,10.00
2008,06,23,06,51,10.10
2008,06,23,06,52,10.10
2008,06,23,06,53,10.10
2008,06,23,06,54,10.20
2008,06,23,06,55,10.20
2008,06,23,06,56,10.20
2008,06,23,06,57,10.20
2008,06,23,06,58,10.30
2008,06,23,06,59,10.30
2008,06,23,07,00,10.30
2008,06,23,07,01,10.30
2008,06,23,07,02,10.40
2008,06,23,07,03,10.40
2008,06,23,07,04,10.40
2008,06,23,07,05,10.50
2008,06,23,07,06,10.50
2008,06,23,07,07,10.60
2008,06,23,07,08,10.60
2008,06,23,07,09,10.70
2008,06,23,07,10,10.70
2008,06,23,07,11,10.80
2008,06,23,07,12,10.80
2008,06,23,07,13,10.90
2008,06,23,07,14,10.90
2008,06,23,07,15,11.00
2008,06,23,07,16,11.00
2008,06,23,07,17,11.10
2008,06,23,07,18,11.10
2008,06,23,07,19,11.20
2008,06,23,07,20,11.30
2008,06,23,07,21,11.30
2008,06,23,07,22,11.40
2008,06,23,07,23,11.40
2008,06,23,07,24,11.50
2008,06,23,07,25,11.60
2008,06,23,07,26,11.70
2008,06,23,07,27,11.80
2008,06,23,07,28,11.80
2008,06,23,07,29,11.90
2008,06,23,07,30,12.00
2008,06,23,07,31,12.00
2008,06,23,07,32,12.10
2008,06,23,07,33,12.10
2008,06,23,07,34,12.20
2008,06,23,07,35,12.30
2008,06,23,07,36,12.30
2008,06,23,07,37,12.40
2008,06,23,07,38,12.50
2008,06,23,07,39,12.50
2008,06,23,07,40,12.60
2008,06,23,07,41,12.60
2008,06,23,07,42,12.60
2008,06,23,07,43,12.70
2008,06,23,07,44,12.70
2008,06,23,07,45,12.70
2008,06,23,07,46,12.80
2008,06,23,07,47,12.80
2008,06,23,07,48,12.80
2008,06,23,07,49,12.80
2008,06,23,07,50,12.80
2008,06,23,07,51,12.90
2008,06,23,07,52,12.90
2008,06,23,07,53,12.90
2008,06,23,07,54,12.90
2008,06,23,07,55,12.90
2008,06,23,07,56,13.00
2008,06,23,07,57,13.00
2008,06,23,07,58,13.00
2008,06,23,07,59,13.10
2008,06,23,08,00,13.10
2008,06,23,08,01,13.20
2008,06,23,08,02,13.20
2008,06,23,08,03,13.20
2008,06,23,08,04,13.20
2008,06,23,08,05,13.20
2008,06,23,08,06,13.20
2008,06,23,08,07,13.30
2008,06,23,08,08,13.30
2008,06,23,08,09,13.30
2008,06,23,08,10,13.30
2008,06,23,08,11,13.30
2008,06,23,08,12,13.30
2008,06,23,08,13,13.30
2008,06,23,08,14,13.30
2008,06,23,08,15,13.30
2008,06,23,08,16,13.30
2008,06,23,08,17,13.40
2008,06,23,08,18,13.40
2008,06,23,08,19,13.40
2008,06,23,08,20,13.40
2008,06,23,08,21,13.40
2008,06,23,08,22,13.40
2008,06,23,08,23,13.40
2008,06,23,08,24,13.40
2008,06,23,08,25,13.50
2008,06,23,08,26,13.50
2008,06,23,08,27,13.50
2008,06,23,08,28,13.50
2008,06,23,08,29,13.60
2008,06,23,08,30,13.60
2008,06,23,08,31,13.60
2008,06,23,08,32,13.60
2008,06,23,08,33,13.60
2008,06,23,08,34,13.70
2008,06,23,08,35,13.70
2008,06,23,08,36,13.70
2008,06,23,08,37,13.70
2008,06,23,08,38,13.70
2008,06,23,08,39,13.70
2008,06,23,08,40,13.70
2008,06,23,08,41,13.80
2008,06,23,08,42,13.80
2008,06,23,08,43,13.80
2008,06,23,08,44,13.90
2008,06,23,08,45,13.90
2008,06,23,08,46,13.90
2008,06,23,08,47,14.00
2008,06,23,08,48,14.00
2008,06,23,08,49,14.10
2008,06,23,08,50,14.10
2008,06,23,08,51,14.10
2008,06,23,08,52,14.10
2008,06,23,08,53,14.20
2008,06,23,08,54,14.20
2008,06,23,08,55,14.20
2008,06,23,08,56,14.30
2008,06,23,08,57,14.30
2008,06,23,08,58,14.30
2008,06,23,08,59,14.30
2008,06,23,09,00,14.40
2008,06,23,09,01,14.40
2008,06,23,09,02,14.40
2008,06,23,09,03,14.50
2008,06,23,09,04,14.50
2008,06,23,09,05,14.60
2008,06,23,09,06,14.60
2008,06,23,09,07,14.70
2008,06,23,09,08,14.70
2008,06,23,09,09,14.80
2008,06,23,09,10,14.80
2008,06,23,09,11,14.90
2008,06,23,09,12,15.00
2008,06,23,09,13,15.00
2008,06,23,09,14,15.00
2008,06,23,09,15,15.00
2008,06,23,09,16,15.00
2008,06,23,09,17,15.00
2008,06,23,09,18,15.10
2008,06,23,09,19,15.10
2008,06,23,09,20,15.20
2008,06,23,09,21,15.20
2008,06,23,09,22,15.30
2008,06,23,09,23,15.30
2008,06,23,09,24,15.30
2008,06,23,09,25,15.30
2008,06,23,09,26,15.40
2008,06,23,09,27,15.40
2008,06,23,09,28,15.40
2008,06,23,09,29,15.40
2008,06,23,09,30,15.40
2008,06,23,09,31,15.50
2008,06,23,09,32,15.50
2008,06,23,09,33,15.60
2008,06,23,09,34,15.60
2008,06,23,09,35,15.70
2008,06,23,09,36,15.80
2008,06,23,09,37,15.80
2008,06,23,09,38,15.90
2008,06,23,09,39,16.00
2008,06,23,09,40,16.10
2008,06,23,09,41,16.20
2008,06,23,09,42,16.20
2008,06,23,09,43,16.30
2008,06,23,09,44,16.30
2008,06,23,09,45,16.40
2008,06,23,09,46,16.40
2008,06,23,09,47,16.40
2008,06,23,09,48,16.40
2008,06,23,09,49,16.40
2008,06,23,09,50,16.30
2008,06,23,09,51,16.30
2008,06,23,09,52,16.30
2008,06,23,09,53,16.30
2008,06,23,09,54,16.30
2008,06,23,09,55,16.30
2008,06,23,09,56,16.30
2008,06,23,09,57,16.30
2008,06,23,09,58,16.30
2008,06,23,09,59,16.40
2008,06,23,10,00,16.40
2008,06,23,10,01,16.50
2008,06,23,10,02,16.50
2008,06,23,10,03,16.60
2008,06,23,10,04,16.60
2008,06,23,10,05,16.60
2008,06,23,10,06,16.60
2008,06,23,10,07,16.60
2008,06,23,10,08,16.70
2008,06,23,10,09,16.70
2008,06,23,10,10,16.70
2008,06,23,10,11,16.80
2008,06,23,10,12,16.80
2008,06,23,10,13,16.90
2008,06,23,10,14,16.90
2008,06,23,10,15,17.00
2008,06,23,10,16,17.00
2008,06,23,10,17,17.00
2008,06,23,10,18,16.90
2008,06,23,10,19,16.90
2008,06,23,10,20,16.90
2008,06,23,10,21,16.90
2008,06,23,10,22,16.80
2008,06,23,10,23,16.80
2008,06,23,10,24,16.80
2008,06,23,10,25,16.80
2008,06,23,10,26,16.80
2008,06,23,10,27,16.80
2008,06,23,10,28,16.80
2008,06,23,10,29,16.90
2008,06,23,10,30,16.90
2008,06,23,10,31,16.80
2008,06,23,10,32,16.90
2008,06,23,10,33,16.90
2008,06,23,10,34,16.90
2008,06,23,10,35,16.90
2008,06,23,10,36,16.90
2008,06,23,10,37,17.00
2008,06,23,10,38,17.10
2008,06,23,10,39,17.10
2008,06,23,10,40,17.20
2008,06,23,10,41,17.20
2008,06,23,10,42,17.30
2008,06,23,10,43,17.30
2008,06,23,10,44,17.30
2008,06,23,10,45,17.30
2008,06,23,10,46,17.20
2008,06,23,10,47,17.20
2008,06,23,10,48,17.20
2008,06,23,10,49,17.20
2008,06,23,10,50,17.20
2008,06,23,10,51,17.20
2008,06,23,10,52,17.20
2008,06,23,10,53,17.20
2008,06,23,10,54,17.10
2008,06,23,10,55,17.10
2008,06,23,10,56,17.20
2008,06,23,10,57,17.20
2008,06,23,10,58,17.20
2008,06,23,10,59,17.20
2008,06,23,11,00,17.30
2008,06,23,11,01,17.30
2008,06,23,11,02,17.30
2008,06,23,11,03,17.30
2008,06,23,11,04,17.30
2008,06,23,11,05,17.30
2008,06,23,11,06,17.20
2008,06,23,11,07,17.20
2008,06,23,11,08,17.20
2008,06,23,11,09,17.20
2008,06,23,11,10,17.20
2008,06,23,11,11,17.20
2008,06,23,11,12,17.30
2008,06,23,11,13,17.20
2008,06,23,11,14,17.20
2008,06,23,11,15,17.30
2008,06,23,11,16,17.30
2008,06,23,11,17,17.30
2008,06,23,11,18,17.30
2008,06,23,11,19,17.30
2008,06,23,11,20,17.30
2008,06,23,11,21,17.30
2008,06,23,11,22,17.30
2008,06,23,11,23,17.30
2008,06,23,11,24,17.30
2008,06,23,11,25,17.30
2008,06,23,11,26,17.30
2008,06,23,11,27,17.30
2008,06,23,11,28,17.40
2008,06,23,11,29,17.40
2008,06,23,11,30,17.40
2008,06,23,11,31,17.40
2008,06,23,11,32,17.30
2008,06,23,11,33,17.20
2008,06,23,11,34,17.20
2008,06,23,11,35,17.20
2008,06,23,11,36,17.30
2008,06,23,11,37,17.30
2008,06,23,11,38,17.30
2008,06,23,11,39,17.40
2008,06,23,11,40,17.40
2008,06,23,11,41,17.50
2008,06,23,11,42,17.50
2008,06,23,11,43,17.50
2008,06,23,11,44,17.50
2008,06,23,11,45,17.60
2008,06,23,11,46,17.60
2008,06,23,11,47,17.70
2008,06,23,11,48,17.70
2008,06,23,11,49,17.80
2008,06,23,11,50,17.80
2008,06,23,11,51,17.80
2008,06,23,11,52,17.70
2008,06,23,11,53,17.60
2008,06,23,11,54,17.40
2008,06,23,11,55,17.30
2008,06,23,11,56,17.30
2008,06,23,11,57,17.30
2008,06,23,11,58,17.30
2008,06,23,11,59,17.30
2008,06,23,12,00,17.30
2008,06,23,12,01,17.30
2008,06,23,12,02,17.40
2008,06,23,12,03,17.50
2008,06,23,12,04,17.60
2008,06,23,12,05,17.80
2008,06,23,12,06,18.00
2008,06,23,12,07,18.10
2008,06,23,12,08,18.30
2008,06,23,12,09,18.50
2008,06,23,12,10,18.60
2008,06,23,12,11,18.70
2008,06,23,12,12,18.90
2008,06,23,12,13,19.00
2008,06,23,12,14,19.00
2008,06,23,12,15,19.10
2008,06,23,12,16,19.20
2008,06,23,12,17,19.20
2008,06,23,12,18,19.20
2008,06,23,12,19,19.20
2008,06,23,12,20,19.20
2008,06,23,12,21,19.20
2008,06,23,12,22,19.20
2008,06,23,12,23,19.30
2008,06,23,12,24,19.30
2008,06,23,12,25,19.40
2008,06,23,12,26,19.40
2008,06,23,12,27,19.40
2008,06,23,12,28,19.50
2008,06,23,12,29,19.50
2008,06,23,12,30,19.60
2008,06,23,12,31,19.60
2008,06,23,12,32,19.50
2008,06,23,12,33,19.50
2008,06,23,12,34,19.40
2008,06,23,12,35,19.30
2008,06,23,12,36,19.20
2008,06,23,12,37,19.10
2008,06,23,12,38,19.10
2008,06,23,12,39,19.10
2008,06,23,12,40,19.10
2008,06,23,12,41,19.00
2008,06,23,12,42,19.00
2008,06,23,12,43,18.90
2008,06,23,12,44,18.90
2008,06,23,12,45,18.80
2008,06,23,12,46,18.70
2008,06,23,12,47,18.70
2008,06,23,12,48,18.60
2008,06,23,12,49,18.60
2008,06,23,12,50,18.50
2008,06,23,12,51,18.50
2008,06,23,12,52,18.60
2008,06,23,12,53,18.60
2008,06,23,12,54,18.70
2008,06,23,12,55,18.80
2008,06,23,12,56,18.90
2008,06,23,12,57,19.00
2008,06,23,12,58,19.00
2008,06,23,12,59,18.90
2008,06,23,13,00,18.90
2008,06,23,13,01,18.90
2008,06,23,13,02,18.90
2008,06,23,13,03,18.90
2008,06,23,13,04,19.00
2008,06,23,13,05,19.00
2008,06,23,13,06,19.10
2008,06,23,13,07,19.10
2008,06,23,13,08,19.10
2008,06,23,13,09,19.00
2008,06,23,13,10,18.90
2008,06,23,13,11,18.90
2008,06,23,13,12,18.90
2008,06,23,13,13,19.00
2008,06,23,13,14,19.00
2008,06,23,13,15,19.10
2008,06,23,13,16,19.10
2008,06,23,13,17,19.10
2008,06,23,13,18,19.00
2008,06,23,13,19,19.00
2008,06,23,13,20,19.00
2008,06,23,13,21,19.00
2008,06,23,13,22,19.10
2008,06,23,13,23,19.20
2008,06,23,13,24,19.30
2008,06,23,13,25,19.30
2008,06,23,13,26,19.30
2008,06,23,13,27,19.30
2008,06,23,13,28,19.40
2008,06,23,13,29,19.40
2008,06,23,13,30,19.40
2008,06,23,13,31,19.50
2008,06,23,13,32,19.50
2008,06,23,13,33,19.60
2008,06,23,13,34,19.60
2008,06,23,13,35,19.70
2008,06,23,13,36,19.60
2008,06,23,13,37,19.60
2008,06,23,13,38,19.60
2008,06,23,13,39,19.60
2008,06,23,13,40,19.70
2008,06,23,13,41,19.70
2008,06,23,13,42,19.80
2008,06,23,13,43,19.80
2008,06,23,13,44,19.90
2008,06,23,13,45,19.90
2008,06,23,13,46,19.80
2008,06,23,13,47,19.80
2008,06,23,13,48,19.90
2008,06,23,13,49,20.00
2008,06,23,13,50,20.00
2008,06,23,13,51,20.10
2008,06,23,13,52,20.20
2008,06,23,13,53,20.30
2008,06,23,13,54,20.30
2008,06,23,13,55,20.40
2008,06,23,13,56,20.40
2008,06,23,13,57,20.40
2008,06,23,13,58,20.50
2008,06,23,13,59,20.60
2008,06,23,14,00,20.70
2008,06,23,14,01,20.70
2008,06,23,14,02,20.70
2008,06,23,14,03,20.70
2008,06,23,14,04,20.60
2008,06,23,14,05,20.50
2008,06,23,14,06,20.40
2008,06,23,14,07,20.40
2008,06,23,14,08,20.30
2008,06,23,14,09,20.30
2008,06,23,14,10,20.20
2008,06,23,14,11,20.20
2008,06,23,14,12,20.10
2008,06,23,14,13,20.00
2008,06,23,14,14,20.00
2008,06,23,14,15,19.90
2008,06,23,14,16,19.90
2008,06,23,14,17,19.90
2008,06,23,14,18,20.00
2008,06,23,14,19,20.10
2008,06,23,14,20,20.10
2008,06,23,14,21,20.10
2008,06,23,14,22,20.10
2008,06,23,14,23,20.10
2008,06,23,14,24,20.10
2008,06,23,14,25,20.10
2008,06,23,14,26,20.10
2008,06,23,14,27,20.10
2008,06,23,14,28,20.10
2008,06,23,14,29,20.10
2008,06,23,14,30,20.10
2008,06,23,14,31,20.10
2008,06,23,14,32,20.10
2008,06,23,14,33,20.20
2008,06,23,14,34,20.20
2008,06,23,14,35,20.20
2008,06,23,14,36,20.10
2008,06,23,14,37,20.10
2008,06,23,14,38,20.10
2008,06,23,14,39,20.00
2008,06,23,14,40,20.00
2008,06,23,14,41,20.10
2008,06,23,14,42,20.10
2008,06,23,14,43,20.20
2008,06,23,14,44,20.20
2008,06,23,14,45,20.20
2008,06,23,14,46,20.20
2008,06,23,14,47,20.20
2008,06,23,14,48,20.10
2008,06,23,14,49,20.10
2008,06,23,14,50,20.00
2008,06,23,14,51,20.00
2008,06,23,14,52,20.10
2008,06,23,14,53,20.10
2008,06,23,14,54,20.20
2008,06,23,14,55,20.20
2008,06,23,14,56,20.20
2008,06,23,14,57,20.30
2008,06,23,14,58,20.40
2008,06,23,14,59,20.40
2008,06,23,15,00,20.50
2008,06,23,15,01,20.60
2008,06,23,15,02,20.50
2008,06,23,15,03,20.40
2008,06,23,15,04,20.40
2008,06,23,15,05,20.40
2008,06,23,15,06,20.40
2008,06,23,15,07,20.40
2008,06,23,15,08,20.30
2008,06,23,15,09,20.20
2008,06,23,15,10,20.10
2008,06,23,15,11,20.10
2008,06,23,15,12,20.00
2008,06,23,15,13,20.00
2008,06,23,15,14,20.10
2008,06,23,15,15,20.10
2008,06,23,15,16,20.10
2008,06,23,15,17,20.20
2008,06,23,15,18,20.20
2008,06,23,15,19,20.20
2008,06,23,15,20,20.20
2008,06,23,15,21,20.20
2008,06,23,15,22,20.20
2008,06,23,15,23,20.30
2008,06,23,15,24,20.30
2008,06,23,15,25,20.40
2008,06,23,15,26,20.50
2008,06,23,15,27,20.50
2008,06,23,15,28,20.50
2008,06,23,15,29,20.60
2008,06,23,15,30,20.60
2008,06,23,15,31,20.60
2008,06,23,15,32,20.60
2008,06,23,15,33,20.60
2008,06,23,15,34,20.50
2008,06,23,15,35,20.40
2008,06,23,15,36,20.40
2008,06,23,15,37,20.40
2008,06,23,15,38,20.40
2008,06,23,15,39,20.30
2008,06,23,15,40,20.30
2008,06,23,15,41,20.30
2008,06,23,15,42,20.30
2008,06,23,15,43,20.30
2008,06,23,15,44,20.20
2008,06,23,15,45,20.20
2008,06,23,15,46,20.20
2008,06,23,15,47,20.20
2008,06,23,15,48,20.20
2008,06,23,15,49,20.20
2008,06,23,15,50,20.20
2008,06,23,15,51,20.20
2008,06,23,15,52,20.20
2008,06,23,15,53,20.30
2008,06,23,15,54,20.30
2008,06,23,15,55,20.40
2008,06,23,15,56,20.50
2008,06,23,15,57,20.50
2008,06,23,15,58,20.60
2008,06,23,15,59,20.60
2008,06,23,16,00,20.70
2008,06,23,16,01,20.70
2008,06,23,16,02,20.70
2008,06,23,16,03,20.80
2008,06,23,16,04,20.80
2008,06,23,16,05,20.80
2008,06,23,16,06,20.80
2008,06,23,16,07,20.80
2008,06,23,16,08,20.80
2008,06,23,16,09,20.80
2008,06,23,16,10,20.80
2008,06,23,16,11,20.80
2008,06,23,16,12,20.80
2008,06,23,16,13,20.80
2008,06,23,16,14,20.70
2008,06,23,16,15,20.70
2008,06,23,16,16,20.70
2008,06,23,16,17,20.70
2008,06,23,16,18,20.60
2008,06,23,16,19,20.60
2008,06,23,16,20,20.50
2008,06,23,16,21,20.40
2008,06,23,16,22,20.40
2008,06,23,16,23,20.40
2008,06,23,16,24,20.40
2008,06,23,16,25,20.40
2008,06,23,16,26,20.40
2008,06,23,16,27,20.40
2008,06,23,16,28,20.40
2008,06,23,16,29,20.40
2008,06,23,16,30,20.40
2008,06,23,16,31,20.50
2008,06,23,16,32,20.50
2008,06,23,16,33,20.50
2008,06,23,16,34,20.50
2008,06,23,16,35,20.40
2008,06,23,16,36,20.50
2008,06,23,16,37,20.50
2008,06,23,16,38,20.50
2008,06,23,16,39,20.50
2008,06,23,16,40,20.60
2008,06,23,16,41,20.60
2008,06,23,16,42,20.70
2008,06,23,16,43,20.70
2008,06,23,16,44,20.80
2008,06,23,16,45,20.80
2008,06,23,16,46,20.80
2008,06,23,16,47,20.80
2008,06,23,16,48,20.70
2008,06,23,16,49,20.70
2008,06,23,16,50,20.70
2008,06,23,16,51,20.60
2008,06,23,16,52,20.60
2008,06,23,16,53,20.60
2008,06,23,16,54,20.60
2008,06,23,16,55,20.60
2008,06,23,16,56,20.50
2008,06,23,16,57,20.50
2008,06,23,16,58,20.40
2008,06,23,16,59,20.40
2008,06,23,17,00,20.30
2008,06,23,17,01,20.20
2008,06,23,17,02,20.10
2008,06,23,17,03,20.00
2008,06,23,17,04,19.90
2008,06,23,17,05,19.90
2008,06,23,17,06,19.80
2008,06,23,17,07,19.90
2008,06,23,17,08,19.90
2008,06,23,17,09,19.90
2008,06,23,17,10,20.00
2008,06,23,17,11,20.00
2008,06,23,17,12,20.00
2008,06,23,17,13,20.10
2008,06,23,17,14,20.10
2008,06,23,17,15,20.10
2008,06,23,17,16,20.10
2008,06,23,17,17,20.10
2008,06,23,17,18,20.10
2008,06,23,17,19,20.20
2008,06,23,17,20,20.30
2008,06,23,17,21,20.30
2008,06,23,17,22,20.40
2008,06,23,17,23,20.40
2008,06,23,17,24,20.50
2008,06,23,17,25,20.50
2008,06,23,17,26,20.60
2008,06,23,17,27,20.70
2008,06,23,17,28,20.70
2008,06,23,17,29,20.80
2008,06,23,17,30,20.80
2008,06,23,17,31,20.90
2008,06,23,17,32,20.90
2008,06,23,17,33,21.00
2008,06,23,17,34,21.10
2008,06,23,17,35,21.10
2008,06,23,17,36,21.20
2008,06,23,17,37,21.20
2008,06,23,17,38,21.20
2008,06,23,17,39,21.20
2008,06,23,17,40,21.30
2008,06,23,17,41,21.30
2008,06,23,17,42,21.30
2008,06,23,17,43,21.30
2008,06,23,17,44,21.20
2008,06,23,17,45,21.20
2008,06,23,17,46,21.20
2008,06,23,17,47,21.20
2008,06,23,17,48,21.20
2008,06,23,17,49,21.20
2008,06,23,17,50,21.20
2008,06,23,17,51,21.20
2008,06,23,17,52,21.30
2008,06,23,17,53,21.30
2008,06,23,17,54,21.30
2008,06,23,17,55,21.40
2008,06,23,17,56,21.40
2008,06,23,17,57,21.30
2008,06,23,17,58,21.30
2008,06,23,17,59,21.30
2008,06,23,18,00,21.30
2008,06,23,18,01,21.20
2008,06,23,18,02,21.20
2008,06,23,18,03,21.20
2008,06,23,18,04,21.10
2008,06,23,18,05,21.10
2008,06,23,18,06,21.10
2008,06,23,18,07,21.10
2008,06,23,18,08,21.10
2008,06,23,18,09,21.10
2008,06,23,18,10,21.20
2008,06,23,18,11,21.20
2008,06,23,18,12,21.20
2008,06,23,18,13,21.10
2008,06,23,18,14,21.10
2008,06,23,18,15,21.10
2008,06,23,18,16,21.10
2008,06,23,18,17,21.00
2008,06,23,18,18,20.90